DateTime,Voltage,Setpoint_Voltage,VVC_ClosedLoop_Enabled,Real_Power
 03/09/2018 00:00:00,32.91,33.0,1,-11.22
 03/09/2018 00:15:00,32.91,33.0,1,-11.22
 03/09/2018 00:30:00,32.91,33.0,1,-11.22
 03/09/2018 00:45:00,32.91,33.0,1,-11.22
 03/09/2018 01:00:00,32.91,33.0,1,-11.22
 03/09/2018 01:15:00,32.91,33.0,1,-11.22
 03/09/2018 01:30:00,32.91,33.0,1,-11.22
 03/09/2018 01:45:00,32.91,33.0,1,-11.22
 03/09/2018 02:00:00,32.91,33.0,1,-11.22
 03/09/2018 02:15:00,32.91,33.0,1,-11.22
 03/09/2018 02:30:00,32.91,33.0,1,-11.22
 03/09/2018 02:45:00,32.91,33.0,1,-11.22
 03/09/2018 03:00:00,32.91,33.0,1,-11.22
 03/09/2018 03:15:00,32.91,33.0,1,-11.22
 03/09/2018 03:30:00,32.91,33.0,1,-11.22
 03/09/2018 03:45:00,32.91,33.0,1,-11.22
 03/09/2018 04:00:00,32.91,33.0,1,-11.22
 03/09/2018 04:15:00,32.91,33.0,1,-11.22
 03/09/2018 04:30:00,32.91,33.0,1,-11.22
 03/09/2018 04:45:00,32.91,33.0,1,-11.22
 03/09/2018 05:00:00,32.91,33.0,1,-11.22
 03/09/2018 05:15:00,32.91,33.0,1,-11.22
 03/09/2018 05:30:00,32.91,33.0,1,-11.22
 03/09/2018 05:45:00,32.91,33.0,1,-11.22
 03/09/2018 06:00:00,32.91,33.0,1,-11.22
 03/09/2018 06:15:00,32.91,33.0,1,-11.22
 03/09/2018 06:30:00,32.91,33.0,1,-11.22
 03/09/2018 06:45:00,32.91,33.0,1,-11.22
 03/09/2018 07:00:00,32.91,33.0,1,-11.22
 03/09/2018 07:15:00,32.91,33.0,1,-11.22
 03/09/2018 07:30:00,32.91,33.0,1,-11.22
 03/09/2018 07:45:00,32.91,33.0,1,-11.22
 03/09/2018 08:00:00,32.91,33.0,1,-11.22
 03/09/2018 08:15:00,32.91,33.0,1,-11.22
 03/09/2018 08:30:00,32.91,33.0,1,-11.22
 03/09/2018 08:45:00,32.91,33.0,1,-11.22
 03/09/2018 09:00:00,32.67,33.0,1,-12.77
 03/09/2018 09:15:00,32.55,33.0,1,-12.96
 03/09/2018 09:30:00,32.59,33.0,1,-11.28
 03/09/2018 09:45:00,32.57,32.98,2,-11.59
 03/09/2018 10:00:00,32.6,32.97,2,-8.89
 03/09/2018 10:15:00,32.7,32.97,2,-8.26
 03/09/2018 10:30:00,32.94,32.83,2,-6.49
 03/09/2018 10:45:00,32.9,32.8,2,-6.25
 03/09/2018 11:00:00,32.9,32.8,2,-7.27
 03/09/2018 11:15:00,32.88,32.8,2,-7.28
 03/09/2018 11:30:00,32.86,32.8,2,-5.81
 03/09/2018 11:45:00,32.85,32.8,2,-4.55
 03/09/2018 12:00:00,32.84,32.8,2,-3.5
 03/09/2018 12:15:00,32.85,32.8,2,-4.89
 03/09/2018 12:30:00,32.83,32.8,2,-4.89
 03/09/2018 12:45:00,32.84,32.8,2,-4.31
 03/09/2018 13:00:00,32.85,32.8,2,-6.01
 03/09/2018 13:15:00,32.84,32.8,2,-9.01
 03/09/2018 13:30:00,32.85,32.8,2,-11.05
 03/09/2018 13:45:00,32.8,32.8,2,-12.81
 03/09/2018 14:00:00,32.77,32.71,2,-13.58
 03/09/2018 14:15:00,32.71,32.51,2,-14.2
 03/09/2018 14:30:00,32.71,32.51,2,-13.44
 03/09/2018 14:45:00,32.75,32.51,2,-13.07
 03/09/2018 15:00:00,32.53,32.39,2,-12.95
 03/09/2018 15:15:00,32.29,32.27,2,-13.23
 03/09/2018 15:30:00,32.24,32.27,2,-13.58
 03/09/2018 15:45:00,32.27,32.27,2,-13.84
 03/09/2018 16:00:00,32.26,32.27,2,-14.24
 03/09/2018 16:15:00,32.27,32.27,2,-14.86
 03/09/2018 16:30:00,32.31,32.27,2,-14.91
 03/09/2018 16:45:00,32.29,32.27,2,-15.45
 03/09/2018 17:00:00,32.28,32.27,2,-15.38
 03/09/2018 17:15:00,32.34,32.27,2,-15.24
 03/09/2018 17:30:00,32.29,32.27,2,-15.71
 03/09/2018 17:45:00,32.31,32.27,2,-15.75
 03/09/2018 18:00:00,32.26,32.27,2,-16.41
 03/09/2018 18:15:00,32.33,32.27,2,-16.92
 03/09/2018 18:30:00,32.33,32.25,2,-16.74
 03/09/2018 18:45:00,31.77,31.75,2,-16.25
 03/09/2018 19:00:00,31.72,31.75,2,-16.25
 03/09/2018 19:15:00,31.73,31.75,2,-16.76
 03/09/2018 19:30:00,31.76,31.75,2,-16.92
 03/09/2018 19:45:00,31.78,31.75,2,-16.92
 03/09/2018 20:00:00,31.77,31.75,2,-16.92
 03/09/2018 20:15:00,31.71,31.83,2,-16.92
 03/09/2018 20:30:00,31.77,31.84,2,-16.92
 03/09/2018 20:45:00,31.78,31.96,2,-16.92
 03/09/2018 21:00:00,31.84,32.11,2,-16.6
 03/09/2018 21:15:00,31.92,31.99,2,-16.03
 03/09/2018 21:30:00,32.02,31.88,2,-15.58
 03/09/2018 21:45:00,32.13,31.88,2,-15.34
 03/09/2018 22:00:00,32.25,31.88,2,-14.56
 03/09/2018 22:15:00,32.21,31.88,2,-14.41
 03/09/2018 22:30:00,32.21,31.88,2,-13.74
 03/09/2018 22:45:00,32.2,31.88,2,-13.46
 03/09/2018 23:00:00,32.08,31.88,2,-13.07
 03/09/2018 23:15:00,31.95,31.88,2,-12.58
 03/09/2018 23:30:00,31.78,31.88,2,-11.92
 03/09/2018 23:45:00,31.9,31.88,2,-11.56
 04/09/2018 00:00:00,31.88,31.88,2,-11.56
 04/09/2018 00:15:00,31.92,31.88,2,-11.56
 04/09/2018 00:30:00,31.98,31.88,2,-11.36
 04/09/2018 00:45:00,32.07,31.88,2,-10.89
 04/09/2018 01:00:00,32.09,31.88,2,-10.89
 04/09/2018 01:15:00,32.11,31.88,2,-10.89
 04/09/2018 01:30:00,32.17,31.88,2,-10.89
 04/09/2018 01:45:00,32.2,31.88,2,-10.77
 04/09/2018 02:00:00,32.22,31.88,2,-10.22
 04/09/2018 02:15:00,31.99,31.88,2,-10.22
 04/09/2018 02:30:00,31.97,31.88,2,-10.22
 04/09/2018 02:45:00,31.93,31.88,2,-10.19
 04/09/2018 03:00:00,31.92,31.88,2,-9.72
 04/09/2018 03:15:00,32.79,32.84,1,-9.72
 04/09/2018 03:30:00,32.95,33.0,1,-9.72
 04/09/2018 03:45:00,32.99,33.0,1,-9.72
 04/09/2018 04:00:00,32.95,33.0,1,-9.72
 04/09/2018 04:15:00,32.92,33.0,1,-9.9
 04/09/2018 04:30:00,32.93,33.0,1,-10.39
 04/09/2018 04:45:00,32.9,33.0,1,-10.39
 04/09/2018 05:00:00,32.86,33.0,1,-10.39
 04/09/2018 05:15:00,32.85,33.0,1,-10.39
 04/09/2018 05:30:00,32.8,33.0,1,-10.81
 04/09/2018 05:45:00,32.77,33.0,1,-11.06
 04/09/2018 06:00:00,32.71,33.0,1,-11.24
 04/09/2018 06:15:00,32.62,33.0,1,-12.32
 04/09/2018 06:30:00,32.61,33.0,1,-13.48
 04/09/2018 06:45:00,32.78,33.0,1,-14.41
 04/09/2018 07:00:00,32.86,33.0,1,-14.5
 04/09/2018 07:15:00,32.65,33.0,1,-15.43
 04/09/2018 07:30:00,32.53,33.0,1,-16.22
 04/09/2018 07:45:00,32.76,33.0,1,-16.77
 04/09/2018 08:00:00,32.83,33.0,1,-16.52
 04/09/2018 08:15:00,32.77,33.0,1,-16.78
 04/09/2018 08:30:00,32.73,33.0,1,-16.92
 04/09/2018 08:45:00,32.67,33.0,1,-16.92
 04/09/2018 09:00:00,32.81,33.0,1,-16.92
 04/09/2018 09:15:00,32.86,33.0,1,-16.41
 04/09/2018 09:30:00,32.89,32.99,2,-15.28
 04/09/2018 09:45:00,32.92,32.97,2,-14.68
 04/09/2018 10:00:00,32.96,32.97,2,-14.01
 04/09/2018 10:15:00,32.95,32.97,2,-13.6
 04/09/2018 10:30:00,32.8,32.97,2,-13.44
 04/09/2018 10:45:00,32.78,32.97,2,-13.9
 04/09/2018 11:00:00,32.78,32.97,2,-13.9
 04/09/2018 11:15:00,32.71,32.97,2,-13.98
 04/09/2018 11:30:00,32.75,32.97,2,-14.57
 04/09/2018 11:45:00,32.74,32.97,2,-14.57
 04/09/2018 12:00:00,32.73,32.97,2,-14.48
 04/09/2018 12:15:00,32.76,32.97,2,-14.12
 04/09/2018 12:30:00,32.77,32.97,2,-14.29
 04/09/2018 12:45:00,32.83,32.97,2,-12.76
 04/09/2018 13:00:00,32.83,32.97,2,-12.1
 04/09/2018 13:15:00,32.82,32.97,2,-12.8
 04/09/2018 13:30:00,32.88,32.97,2,-12.99
 04/09/2018 13:45:00,32.89,32.97,2,-12.41
 04/09/2018 14:00:00,32.87,32.97,2,-12.12
 04/09/2018 14:15:00,32.78,32.97,2,-12.48
 04/09/2018 14:30:00,32.88,32.97,2,-12.69
 04/09/2018 14:45:00,32.82,32.97,2,-12.49
 04/09/2018 15:00:00,32.78,32.97,2,-12.73
 04/09/2018 15:15:00,32.81,32.97,2,-12.77
 04/09/2018 15:30:00,32.82,32.97,2,-12.9
 04/09/2018 15:45:00,32.8,32.97,2,-13.36
 04/09/2018 16:00:00,32.74,32.97,2,-13.02
 04/09/2018 16:15:00,32.76,32.97,2,-13.16
 04/09/2018 16:30:00,32.74,32.9,2,-13.92
 04/09/2018 16:45:00,32.7,32.77,2,-14.57
 04/09/2018 17:00:00,32.71,32.77,2,-14.67
 04/09/2018 17:15:00,32.68,32.77,2,-15.83
 04/09/2018 17:30:00,32.66,32.77,2,-15.91
 04/09/2018 17:45:00,32.74,32.77,2,-15.91
 04/09/2018 18:00:00,32.76,32.77,2,-16.07
 04/09/2018 18:15:00,32.76,32.77,2,-16.58
 04/09/2018 18:30:00,32.78,32.77,2,-17.16
 04/09/2018 18:45:00,32.74,32.77,2,-17.25
 04/09/2018 19:00:00,32.77,32.77,2,-17.25
 04/09/2018 19:15:00,32.78,32.77,2,-17.25
 04/09/2018 19:30:00,32.75,32.77,2,-17.29
 04/09/2018 19:45:00,32.71,32.77,2,-17.92
 04/09/2018 20:00:00,32.71,32.77,2,-17.92
 04/09/2018 20:15:00,32.61,32.77,2,-17.92
 04/09/2018 20:30:00,32.63,32.77,2,-17.92
 04/09/2018 20:45:00,32.73,32.56,2,-17.87
 04/09/2018 21:00:00,32.85,32.51,2,-16.96
 04/09/2018 21:15:00,32.76,32.51,2,-16.75
 04/09/2018 21:30:00,32.63,32.51,2,-16.47
 04/09/2018 21:45:00,32.56,32.51,2,-15.93
 04/09/2018 22:00:00,32.57,32.51,2,-14.93
 04/09/2018 22:15:00,32.66,32.51,2,-14.07
 04/09/2018 22:30:00,32.55,32.51,2,-13.72
 04/09/2018 22:45:00,32.6,32.51,2,-13.4
 04/09/2018 23:00:00,32.68,32.51,2,-12.81
 04/09/2018 23:15:00,32.67,32.51,2,-12.26
 04/09/2018 23:30:00,32.66,32.51,2,-12.06
 04/09/2018 23:45:00,32.73,32.51,2,-11.47
 05/09/2018 00:00:00,32.68,32.51,2,-11.39
 05/09/2018 00:15:00,32.55,32.51,2,-11.39
 05/09/2018 00:30:00,32.48,32.51,2,-11.39
 05/09/2018 00:45:00,32.51,32.51,2,-11.39
 05/09/2018 01:00:00,32.52,32.51,2,-11.39
 05/09/2018 01:15:00,32.51,32.51,2,-11.39
 05/09/2018 01:30:00,32.58,32.51,2,-11.39
 05/09/2018 01:45:00,32.59,32.51,2,-11.39
 05/09/2018 02:00:00,32.65,32.51,2,-10.86
 05/09/2018 02:15:00,32.64,32.69,1,-10.72
 05/09/2018 02:30:00,32.71,33.0,1,-10.72
 05/09/2018 02:45:00,32.75,33.0,1,-10.13
 05/09/2018 03:00:00,32.64,33.0,1,-10.05
 05/09/2018 03:15:00,32.6,33.0,1,-10.05
 05/09/2018 03:30:00,32.63,33.0,1,-10.05
 05/09/2018 03:45:00,32.64,33.0,1,-10.05
 05/09/2018 04:00:00,32.61,33.0,1,-10.05
 05/09/2018 04:15:00,32.63,33.0,1,-10.05
 05/09/2018 04:30:00,32.65,33.0,1,-10.05
 05/09/2018 04:45:00,32.6,33.0,1,-10.05
 05/09/2018 05:00:00,32.58,33.0,1,-10.35
 05/09/2018 05:15:00,32.59,33.0,1,-10.55
 05/09/2018 05:30:00,32.52,33.0,1,-10.55
 05/09/2018 05:45:00,32.67,33.0,1,-11.12
 05/09/2018 06:00:00,32.8,33.0,1,-11.83
 05/09/2018 06:15:00,32.8,33.0,1,-12.25
 05/09/2018 06:30:00,32.75,33.0,1,-13.0
 05/09/2018 06:45:00,32.63,33.0,1,-14.32
 05/09/2018 07:00:00,32.61,33.0,1,-14.66
 05/09/2018 07:15:00,32.72,33.0,1,-15.72
 05/09/2018 07:30:00,32.75,33.0,1,-15.91
 05/09/2018 07:45:00,32.63,33.0,1,-15.91
 05/09/2018 08:00:00,32.59,33.0,1,-15.91
 05/09/2018 08:15:00,32.57,33.0,1,-15.08
 05/09/2018 08:30:00,32.56,33.0,1,-14.36
 05/09/2018 08:45:00,32.6,33.0,1,-12.88
 05/09/2018 09:00:00,32.65,33.0,1,-11.36
 05/09/2018 09:15:00,32.6,33.0,1,-10.47
 05/09/2018 09:30:00,32.7,33.0,1,-9.87
 05/09/2018 09:45:00,32.72,33.0,1,-8.92
 05/09/2018 10:00:00,32.76,33.0,1,-8.12
 05/09/2018 10:15:00,32.75,33.0,1,-8.26
 05/09/2018 10:30:00,32.77,33.0,1,-7.68
 05/09/2018 10:45:00,32.76,33.0,1,-7.46
 05/09/2018 11:00:00,32.77,33.0,1,-7.35
 05/09/2018 11:15:00,32.73,33.0,1,-6.89
 05/09/2018 11:30:00,32.72,32.99,2,-7.78
 05/09/2018 11:45:00,32.73,32.97,2,-7.67
 05/09/2018 12:00:00,32.7,32.87,2,-5.84
 05/09/2018 12:15:00,32.68,32.67,2,-6.1
 05/09/2018 12:30:00,32.67,32.67,2,-6.97
 05/09/2018 12:45:00,32.73,32.67,2,-6.13
 05/09/2018 13:00:00,32.77,32.67,2,-4.8
 05/09/2018 13:15:00,32.51,32.42,2,-3.54
 05/09/2018 13:30:00,32.27,32.37,2,-3.64
 05/09/2018 13:45:00,32.25,32.37,2,-3.21
 05/09/2018 14:00:00,32.23,32.37,2,-2.58
 05/09/2018 14:15:00,32.17,32.37,2,-3.3
 05/09/2018 14:30:00,32.15,32.37,2,-3.13
 05/09/2018 14:45:00,32.16,32.37,2,-3.93
 05/09/2018 15:00:00,32.21,32.37,2,-4.6
 05/09/2018 15:15:00,32.7,33.1,2,-5.32
 05/09/2018 15:30:00,32.75,33.17,2,-5.38
 05/09/2018 15:45:00,32.75,33.17,2,-5.19
 05/09/2018 16:00:00,32.74,33.17,2,-5.8
 05/09/2018 16:15:00,32.82,33.17,2,-6.74
 05/09/2018 16:30:00,32.79,33.17,2,-7.76
 05/09/2018 16:45:00,32.75,33.17,2,-9.75
 05/09/2018 17:00:00,32.8,33.17,2,-10.09
 05/09/2018 17:15:00,32.84,33.17,2,-11.28
 05/09/2018 17:30:00,32.81,33.17,2,-12.68
 05/09/2018 17:45:00,32.85,32.87,2,-13.17
 05/09/2018 18:00:00,32.36,32.19,2,-12.71
 05/09/2018 18:15:00,31.87,31.81,2,-14.27
 05/09/2018 18:30:00,31.89,31.81,2,-15.41
 05/09/2018 18:45:00,31.89,31.81,2,-15.62
 05/09/2018 19:00:00,31.88,31.81,2,-16.24
 05/09/2018 19:15:00,31.82,31.81,2,-17.17
 05/09/2018 19:30:00,31.82,31.81,2,-17.25
 05/09/2018 19:45:00,31.8,31.81,2,-17.25
 05/09/2018 20:00:00,31.79,31.81,2,-17.35
 05/09/2018 20:15:00,31.7,31.88,2,-17.85
 05/09/2018 20:30:00,31.72,32.08,2,-17.91
 05/09/2018 20:45:00,31.78,32.08,2,-17.76
 05/09/2018 21:00:00,31.87,32.08,2,-17.54
 05/09/2018 21:15:00,31.92,32.06,2,-17.09
 05/09/2018 21:30:00,32.17,32.42,2,-16.69
 05/09/2018 21:45:00,32.47,32.6,2,-16.15
 05/09/2018 22:00:00,32.58,32.6,2,-15.59
 05/09/2018 22:15:00,32.61,32.6,2,-15.24
 05/09/2018 22:30:00,32.61,32.6,2,-15.24
 05/09/2018 22:45:00,32.65,32.6,2,-14.78
 05/09/2018 23:00:00,32.74,32.6,2,-14.1
 05/09/2018 23:15:00,32.67,32.45,2,-13.68
 05/09/2018 23:30:00,31.96,31.81,2,-12.77
 05/09/2018 23:45:00,31.93,31.81,2,-12.73
 06/09/2018 00:00:00,31.94,31.81,2,-12.43
 06/09/2018 00:15:00,31.97,31.81,2,-12.23
 06/09/2018 00:30:00,32.04,31.81,2,-11.82
 06/09/2018 00:45:00,32.09,31.81,2,-11.56
 06/09/2018 01:00:00,32.1,31.81,2,-11.56
 06/09/2018 01:15:00,32.01,31.81,2,-12.2
 06/09/2018 01:30:00,31.97,31.81,2,-12.23
 06/09/2018 01:45:00,31.95,31.81,2,-12.23
 06/09/2018 02:00:00,32.06,31.81,2,-11.86
 06/09/2018 02:15:00,32.08,31.81,2,-11.73
 06/09/2018 02:30:00,32.1,31.81,2,-11.58
 06/09/2018 02:45:00,32.15,31.81,2,-11.22
 06/09/2018 03:00:00,32.04,31.81,2,-11.22
 06/09/2018 03:15:00,31.94,31.81,2,-11.22
 06/09/2018 03:30:00,31.94,31.81,2,-11.09
 06/09/2018 03:45:00,31.79,31.81,2,-10.55
 06/09/2018 04:00:00,31.81,31.81,2,-10.55
 06/09/2018 04:15:00,31.73,31.81,2,-10.55
 06/09/2018 04:30:00,31.66,31.81,2,-10.55
 06/09/2018 04:45:00,31.58,31.81,2,-10.55
 06/09/2018 05:00:00,31.53,31.81,2,-10.55
 06/09/2018 05:15:00,31.78,32.11,1,-11.17
 06/09/2018 05:30:00,32.95,33.0,1,-11.73
 06/09/2018 05:45:00,32.94,33.0,1,-11.97
 06/09/2018 06:00:00,32.86,33.0,1,-12.4
 06/09/2018 06:15:00,32.63,33.0,1,-13.14
 06/09/2018 06:30:00,32.5,33.0,1,-13.98
 06/09/2018 06:45:00,32.54,33.0,1,-14.75
 06/09/2018 07:00:00,32.59,33.0,1,-16.02
 06/09/2018 07:15:00,32.82,33.0,1,-16.75
 06/09/2018 07:30:00,32.67,33.0,1,-17.17
 06/09/2018 07:45:00,32.59,33.0,1,-16.98
 06/09/2018 08:00:00,32.53,33.0,1,-16.75
 06/09/2018 08:15:00,32.76,33.0,1,-17.19
 06/09/2018 08:30:00,32.97,33.0,1,-16.19
 06/09/2018 08:45:00,32.97,33.0,1,-15.41
 06/09/2018 09:00:00,32.99,33.0,1,-14.54
 06/09/2018 09:15:00,32.98,33.0,1,-11.32
 06/09/2018 09:30:00,33.03,33.0,1,-11.44
 06/09/2018 09:45:00,32.99,33.0,1,-15.08
 06/09/2018 10:00:00,33.05,33.0,1,-14.55
 06/09/2018 10:15:00,33.18,33.0,1,-12.65
 06/09/2018 10:30:00,33.18,33.0,1,-12.68
 06/09/2018 10:45:00,33.14,32.88,2,-13.63
 06/09/2018 11:00:00,32.69,32.61,2,-13.52
 06/09/2018 11:15:00,32.57,32.57,2,-10.81
 06/09/2018 11:30:00,32.57,32.63,2,-11.01
 06/09/2018 11:45:00,32.54,32.98,2,-11.06
 06/09/2018 12:00:00,32.57,32.97,2,-9.96
 06/09/2018 12:15:00,32.54,32.97,2,-8.76
 06/09/2018 12:30:00,32.55,32.97,2,-8.49
 06/09/2018 12:45:00,32.5,32.97,2,-12.82
 06/09/2018 13:00:00,32.5,32.97,2,-11.95
 06/09/2018 13:15:00,32.59,32.97,2,-10.97
 06/09/2018 13:30:00,32.6,32.97,2,-11.24
 06/09/2018 13:45:00,32.57,32.97,2,-12.26
 06/09/2018 14:00:00,32.59,32.97,2,-11.8
 06/09/2018 14:15:00,32.52,32.97,2,-12.91
 06/09/2018 14:30:00,32.53,32.89,2,-13.1
 06/09/2018 14:45:00,32.56,32.87,2,-13.31
 06/09/2018 15:00:00,32.59,32.74,2,-13.11
 06/09/2018 15:15:00,32.58,32.54,2,-13.08
 06/09/2018 15:30:00,32.61,32.54,2,-14.37
 06/09/2018 15:45:00,32.53,32.54,2,-15.11
 06/09/2018 16:00:00,32.46,32.32,2,-15.58
 06/09/2018 16:15:00,32.51,32.47,2,-16.25
 06/09/2018 16:30:00,32.52,32.37,2,-16.16
 06/09/2018 16:45:00,32.47,32.27,2,-16.29
 06/09/2018 17:00:00,32.26,32.1,2,-17.27
 06/09/2018 17:15:00,31.97,31.88,2,-17.82
 06/09/2018 17:30:00,31.93,31.88,2,-18.26
 06/09/2018 17:45:00,31.95,31.88,2,-18.26
 06/09/2018 18:00:00,31.97,31.88,2,-18.26
 06/09/2018 18:15:00,31.96,31.88,2,-18.72
 06/09/2018 18:30:00,31.99,31.88,2,-18.49
 06/09/2018 18:45:00,32.04,31.88,2,-18.26
 06/09/2018 19:00:00,32.08,31.88,2,-17.85
 06/09/2018 19:15:00,32.07,31.88,2,-17.77
 06/09/2018 19:30:00,32.11,31.99,2,-18.43
 06/09/2018 19:45:00,32.1,32.11,2,-18.93
 06/09/2018 20:00:00,32.11,32.11,2,-18.59
 06/09/2018 20:15:00,32.11,32.11,2,-18.42
 06/09/2018 20:30:00,32.18,32.36,2,-18.42
 06/09/2018 20:45:00,32.17,32.54,2,-18.42
 06/09/2018 21:00:00,32.22,32.54,2,-18.08
 06/09/2018 21:15:00,32.33,32.54,2,-17.5
 06/09/2018 21:30:00,32.24,32.54,2,-17.03
 06/09/2018 21:45:00,32.28,32.45,2,-16.58
 06/09/2018 22:00:00,32.28,32.44,2,-16.15
 06/09/2018 22:15:00,32.25,32.44,2,-15.69
 06/09/2018 22:30:00,32.22,32.44,2,-15.24
 06/09/2018 22:45:00,31.98,32.04,2,-14.73
 06/09/2018 23:00:00,31.88,31.88,2,-14.15
 06/09/2018 23:15:00,31.96,31.88,2,-13.95
 06/09/2018 23:30:00,31.8,31.88,2,-13.4
 06/09/2018 23:45:00,31.84,31.88,2,-12.9
 07/09/2018 00:00:00,31.94,32.19,2,-12.3
 07/09/2018 00:15:00,31.99,32.44,2,-12.23
 07/09/2018 00:30:00,32.03,32.44,2,-12.23
 07/09/2018 00:45:00,32.06,32.44,2,-11.87
 07/09/2018 01:00:00,32.08,32.44,2,-11.56
 07/09/2018 01:15:00,32.13,32.44,2,-11.56
 07/09/2018 01:30:00,32.2,32.44,2,-11.56
 07/09/2018 01:45:00,32.18,32.3,2,-11.56
 07/09/2018 02:00:00,32.25,32.17,2,-11.56
 07/09/2018 02:15:00,32.28,32.17,2,-11.56
 07/09/2018 02:30:00,32.31,32.17,2,-11.52
 07/09/2018 02:45:00,32.39,32.17,2,-10.89
 07/09/2018 03:00:00,32.31,32.17,2,-10.89
 07/09/2018 03:15:00,32.26,32.17,2,-10.89
 07/09/2018 03:30:00,32.27,32.16,2,-10.89
 07/09/2018 03:45:00,32.22,31.94,2,-10.89
 07/09/2018 04:00:00,32.23,31.94,2,-10.89
 07/09/2018 04:15:00,32.21,31.94,2,-10.89
 07/09/2018 04:30:00,32.22,32.08,2,-11.04
 07/09/2018 04:45:00,32.14,32.44,2,-11.56
 07/09/2018 05:00:00,32.18,32.36,2,-11.56
 07/09/2018 05:15:00,32.08,32.11,2,-11.56
 07/09/2018 05:30:00,32.11,32.11,2,-11.56
 07/09/2018 05:45:00,32.05,32.11,2,-12.21
 07/09/2018 06:00:00,32.03,32.11,2,-12.23
 07/09/2018 06:15:00,31.91,32.11,2,-13.18
 07/09/2018 06:30:00,31.78,32.11,2,-14.51
 07/09/2018 06:45:00,31.64,32.11,2,-15.4
 07/09/2018 07:00:00,31.62,32.11,2,-16.14
 07/09/2018 07:15:00,31.81,32.11,2,-17.14
 07/09/2018 07:30:00,31.88,32.11,2,-17.53
 07/09/2018 07:45:00,31.86,32.26,2,-17.86
 07/09/2018 08:00:00,31.82,32.27,2,-17.35
 07/09/2018 08:15:00,31.82,32.25,2,-16.43
 07/09/2018 08:30:00,31.82,32.08,2,-14.92
 07/09/2018 08:45:00,31.84,32.08,2,-14.44
 07/09/2018 09:00:00,31.9,32.08,2,-13.52
 07/09/2018 09:15:00,31.91,31.85,2,-12.14
 07/09/2018 09:30:00,31.96,31.75,2,-10.37
 07/09/2018 09:45:00,31.99,31.75,2,-9.32
 07/09/2018 10:00:00,32.02,31.75,2,-8.12
 07/09/2018 10:15:00,32.05,31.75,2,-7.63
 07/09/2018 10:30:00,32.07,31.75,2,-7.65
 07/09/2018 10:45:00,32.03,31.75,2,-6.83
 07/09/2018 11:00:00,31.79,31.75,2,-7.87
 07/09/2018 11:15:00,31.77,31.75,2,-7.76
 07/09/2018 11:30:00,31.76,31.75,2,-7.06
 07/09/2018 11:45:00,31.74,31.75,2,-7.29
 07/09/2018 12:00:00,31.77,31.75,2,-8.63
 07/09/2018 12:15:00,31.8,31.75,2,-6.53
 07/09/2018 12:30:00,31.9,31.75,2,-8.16
 07/09/2018 12:45:00,31.83,31.75,2,-8.18
 07/09/2018 13:00:00,31.7,31.75,2,-7.83
 07/09/2018 13:15:00,31.74,31.75,2,-7.93
 07/09/2018 13:30:00,31.75,31.75,2,-5.41
 07/09/2018 13:45:00,31.74,31.75,2,-5.65
 07/09/2018 14:00:00,31.85,31.75,2,-3.86
 07/09/2018 14:15:00,31.86,31.9,2,-3.63
 07/09/2018 14:30:00,32.13,32.44,2,-3.24
 07/09/2018 14:45:00,32.19,32.44,2,-3.09
 07/09/2018 15:00:00,32.23,32.44,2,-2.76
 07/09/2018 15:15:00,32.49,32.93,2,-2.98
 07/09/2018 15:30:00,32.49,32.89,2,-3.51
 07/09/2018 15:45:00,32.53,32.97,2,-4.11
 07/09/2018 16:00:00,32.54,32.97,2,-4.62
 07/09/2018 16:15:00,32.57,32.97,2,-5.79
 07/09/2018 16:30:00,32.67,32.74,2,-6.79
 07/09/2018 16:45:00,32.65,32.67,2,-9.14
 07/09/2018 17:00:00,32.68,32.75,2,-10.36
 07/09/2018 17:15:00,32.44,32.53,2,-12.69
 07/09/2018 17:30:00,31.83,31.75,2,-12.0
 07/09/2018 17:45:00,31.87,31.99,2,-11.67
 07/09/2018 18:00:00,31.88,32.01,2,-11.98
 07/09/2018 18:15:00,31.83,32.01,2,-12.92
 07/09/2018 18:30:00,31.72,32.01,2,-14.67
 07/09/2018 18:45:00,31.7,32.01,2,-16.25
 07/09/2018 19:00:00,31.75,32.01,2,-16.25
 07/09/2018 19:15:00,31.72,32.01,2,-16.85
 07/09/2018 19:30:00,31.72,32.01,2,-16.92
 07/09/2018 19:45:00,31.65,32.01,2,-17.67
 07/09/2018 20:00:00,31.68,32.01,2,-18.09
 07/09/2018 20:15:00,31.79,32.01,2,-18.27
 07/09/2018 20:30:00,31.89,32.01,2,-18.35
 07/09/2018 20:45:00,31.94,32.01,2,-17.92
 07/09/2018 21:00:00,31.93,32.01,2,-17.92
 07/09/2018 21:15:00,31.79,32.12,2,-17.43
 07/09/2018 21:30:00,31.84,32.24,2,-16.94
 07/09/2018 21:45:00,31.85,32.24,2,-16.58
 07/09/2018 22:00:00,31.86,32.24,2,-16.09
 07/09/2018 22:15:00,31.8,32.24,2,-16.08
 07/09/2018 22:30:00,31.91,32.24,2,-15.48
 07/09/2018 22:45:00,32.36,32.46,2,-14.79
 07/09/2018 23:00:00,32.27,32.47,2,-14.46
 07/09/2018 23:15:00,32.34,32.47,2,-14.07
 07/09/2018 23:30:00,32.37,32.47,2,-13.76
 07/09/2018 23:45:00,32.45,32.43,2,-13.57
 08/09/2018 00:00:00,32.57,32.21,2,-13.41
 08/09/2018 00:15:00,32.47,32.21,2,-12.9
 08/09/2018 00:30:00,32.24,32.21,2,-12.9
 08/09/2018 00:45:00,32.2,32.21,2,-12.9
 08/09/2018 01:00:00,32.22,32.21,2,-12.49
 08/09/2018 01:15:00,32.19,32.21,2,-12.23
 08/09/2018 01:30:00,32.26,32.21,2,-12.23
 08/09/2018 01:45:00,32.26,32.06,2,-12.23
 08/09/2018 02:00:00,32.2,31.94,2,-12.23
 08/09/2018 02:15:00,32.12,31.94,2,-12.23
 08/09/2018 02:30:00,32.08,31.94,2,-12.09
 08/09/2018 02:45:00,31.9,31.94,2,-11.56
 08/09/2018 03:00:00,31.97,31.94,2,-11.32
 08/09/2018 03:15:00,32.06,31.8,2,-11.06
 08/09/2018 03:30:00,32.11,31.75,2,-11.06
 08/09/2018 03:45:00,31.9,31.75,2,-10.97
 08/09/2018 04:00:00,31.62,31.75,2,-11.02
 08/09/2018 04:15:00,31.56,31.75,2,-11.06
 08/09/2018 04:30:00,31.61,31.8,2,-11.29
 08/09/2018 04:45:00,31.55,32.01,2,-11.22
 08/09/2018 05:00:00,31.53,32.01,2,-11.22
 08/09/2018 05:15:00,31.68,32.01,2,-12.0
 08/09/2018 05:30:00,31.78,32.01,2,-12.4
 08/09/2018 05:45:00,31.81,32.01,2,-12.4
 08/09/2018 06:00:00,31.8,32.01,2,-12.4
 08/09/2018 06:15:00,31.71,32.01,2,-12.49
 08/09/2018 06:30:00,31.69,32.01,2,-12.9
 08/09/2018 06:45:00,31.58,32.01,2,-13.44
 08/09/2018 07:00:00,31.55,32.01,2,-13.77
 08/09/2018 07:15:00,31.78,32.01,2,-14.57
 08/09/2018 07:30:00,31.84,32.01,2,-14.57
 08/09/2018 07:45:00,31.83,32.01,2,-14.57
 08/09/2018 08:00:00,32.07,32.01,2,-14.57
 08/09/2018 08:15:00,32.03,32.01,2,-13.42
 08/09/2018 08:30:00,31.9,32.01,2,-13.44
 08/09/2018 08:45:00,31.8,32.01,2,-14.43
 08/09/2018 09:00:00,31.72,32.01,2,-14.57
 08/09/2018 09:15:00,31.71,32.01,2,-14.16
 08/09/2018 09:30:00,31.73,32.01,2,-14.38
 08/09/2018 09:45:00,31.74,32.01,2,-14.48
 08/09/2018 10:00:00,31.79,32.01,2,-13.87
 08/09/2018 10:15:00,31.84,32.01,2,-13.4
 08/09/2018 10:30:00,31.75,32.01,2,-12.89
 08/09/2018 10:45:00,31.77,32.01,2,-12.23
 08/09/2018 11:00:00,31.77,32.01,2,-12.5
 08/09/2018 11:15:00,31.9,32.21,2,-13.19
 08/09/2018 11:30:00,32.15,32.31,2,-13.37
 08/09/2018 11:45:00,32.31,32.31,2,-13.57
 08/09/2018 12:00:00,32.38,32.31,2,-13.35
 08/09/2018 12:15:00,32.45,32.31,2,-13.82
 08/09/2018 12:30:00,32.47,32.31,2,-13.74
 08/09/2018 12:45:00,32.51,32.31,2,-13.48
 08/09/2018 13:00:00,32.57,32.31,2,-12.3
 08/09/2018 13:15:00,32.59,32.31,2,-10.5
 08/09/2018 13:30:00,32.56,32.31,2,-11.61
 08/09/2018 13:45:00,32.6,32.31,2,-11.73
 08/09/2018 14:00:00,32.64,32.31,2,-11.73
 08/09/2018 14:15:00,32.65,32.31,2,-11.31
 08/09/2018 14:30:00,32.62,32.31,2,-10.92
 08/09/2018 14:45:00,32.22,32.01,2,-11.91
 08/09/2018 15:00:00,31.94,31.78,2,-12.77
 08/09/2018 15:15:00,31.94,31.78,2,-11.97
 08/09/2018 15:30:00,31.84,31.78,2,-11.93
 08/09/2018 15:45:00,31.76,31.78,2,-12.4
 08/09/2018 16:00:00,31.74,31.78,2,-12.4
 08/09/2018 16:15:00,31.71,31.78,2,-12.4
 08/09/2018 16:30:00,31.62,31.78,2,-13.25
 08/09/2018 16:45:00,31.43,31.78,2,-14.08
 08/09/2018 17:00:00,31.37,31.78,2,-15.06
 08/09/2018 17:15:00,31.31,31.78,2,-15.14
 08/09/2018 17:30:00,31.29,31.78,2,-14.91
 08/09/2018 17:45:00,31.48,31.8,2,-16.02
 08/09/2018 18:00:00,31.74,31.91,2,-16.08
 08/09/2018 18:15:00,31.73,31.91,2,-16.22
 08/09/2018 18:30:00,31.71,31.91,2,-16.75
 08/09/2018 18:45:00,31.83,31.92,2,-17.17
 08/09/2018 19:00:00,32.15,32.44,2,-17.42
 08/09/2018 19:15:00,32.39,32.57,2,-17.42
 08/09/2018 19:30:00,32.42,32.57,2,-17.42
 08/09/2018 19:45:00,32.44,32.57,2,-16.98
 08/09/2018 20:00:00,32.34,32.57,2,-16.75
 08/09/2018 20:15:00,32.2,32.57,2,-17.04
 08/09/2018 20:30:00,32.23,32.57,2,-16.92
 08/09/2018 20:45:00,32.25,32.57,2,-16.92